User: anonymous   Login
Location: Choisy
(48.7685°N, 2.4187°E)
Time: 23:52:13
(UTC+00:00)
Language:

Cosmos 1844 Rocket - Orbit

View from above orbital plane
View from above orbital plane
View from above satellite
View from above satellite

Ground track
Ground track

The orbit data is extracted from the following two-line orbital elements,

1 17974U 87041B   22020.60799565 -.00000262  00000-0 -10581-3 0  9991
2 17974  71.0094 333.4400 0014481 340.6314 192.4684 14.17283857794243
Epoch (UTC): 20 January 2022 14:35:30
Eccentricity: 0.0014481
inclination: 71.0094°
perigee height: 824 km
apogee height: 845 km
right ascension of ascending node: 333.4400°
argument of perigee: 340.6314°
revolutions per day: 14.17283857
mean anomaly at epoch: 192.4684°
orbit number at epoch: 79424

The dashed part of the orbit path shows where the satellite is in the earth's shadow,  

DLR